Muscatine, IA

9:05 PM CST on December 08, 2019 (GMT -0600)
Muscatine Municipal

Weather History for KMUT - October, 2019

Change the Weather History Date:

Thursday, October 31, 2019

  Actual Average Record
Temperature  
Mean Temperature 28 °F -  
Max Temperature 32 °F 58 °F 87 °F (1950)
Min Temperature 24 °F 41 °F 21 °F (1988)
Degree Days  
Heating Degree Days 37    
Moisture  
Dew Point 25 °F    
Average Humidity 84    
Maximum Humidity 100    
Minimum Humidity 64    
Precipitation  
Precipitation 0.00 in - - ()
Sea Level Pressure  
Sea Level Pressure 30.10 in    
Wind  
Wind Speed 11 mph ()    
Max Wind Speed 21 mph    
Max Gust Speed 29 mph    
Visibility 6.1 miles    
Events Snow    
Averages and records for this station are not official NWS values.
T = Trace of Precipitation, MM = Missing Value Source: Averaged Metar Reports

Daily Weather History Graph

Daily Weather History Graph

Search for Another Location

Airport or City:

Astronomy

Oct. 31, 2019 Rise Set
Actual Time 7:34 AM CDT 6:01 PM CDT
Civil Twilight 7:05 AM CDT 6:29 PM CDT
Nautical Twilight 6:33 AM CDT 7:02 PM CDT
Astronomical Twilight 6:01 AM CDT 7:34 PM CDT
Moon 11:25 AM CDT (10/31) 8:55 PM CDT (10/31)
Length of Visible Light 11h 23m
Length of Day
10h 26m
Waxing Crescent, 16% of the Moon is Illuminated
Oct 31
Waxing Crescent
Nov 4
First Quarter
Nov 12
Full
Nov 19
Last Quarter
Nov 26
New

Hourly Weather History & Observations

Time (CDT) Temp. Windchill Dew Point Humidity Pressure Visibility Wind Dir Wind Speed Gust Speed Precip Events Conditions
12:15 AM 30.2 °F 20.8 °F 30.2 °F 100% 30.09 in 1.8 mi NNW 11.5 mph 19.6 mph N/A   Overcast
12:35 AM 30.2 °F 19.8 °F 28.4 °F 93% 30.09 in 1.8 mi NNW 13.8 mph - N/A Snow Light Snow
12:55 AM 30.2 °F 20.2 °F 28.4 °F 93% 30.08 in 1.5 mi NNW 12.7 mph 23.0 mph N/A Snow Light Snow
1:15 AM 30.2 °F 19.8 °F 28.4 °F 93% 30.07 in 1.5 mi NNW 13.8 mph - N/A Snow Light Snow
1:35 AM 30.2 °F 20.2 °F 28.4 °F 93% 30.07 in 3.0 mi NNW 12.7 mph 18.4 mph N/A Snow Light Snow
1:55 AM 30.2 °F 18.9 °F 28.4 °F 93% 30.06 in 2.5 mi NNW 16.1 mph - N/A Snow Light Snow
2:15 AM 30.2 °F 19.8 °F 28.4 °F 93% 30.06 in 1.8 mi NNW 13.8 mph - N/A Snow Light Snow
2:35 AM 30.2 °F 20.8 °F 28.4 °F 93% 30.07 in 2.0 mi NNW 11.5 mph - N/A Snow Light Snow
2:55 AM 30.2 °F 20.2 °F 28.4 °F 93% 30.06 in 2.5 mi NW 12.7 mph 18.4 mph N/A Snow Light Snow
3:15 AM 30.2 °F 20.2 °F 28.4 °F 93% 30.05 in 2.0 mi NNW 12.7 mph 19.6 mph N/A Snow Light Snow
3:55 AM 30.2 °F 19.8 °F 26.6 °F 86% 30.04 in 6.0 mi NNW 13.8 mph - N/A Snow Light Snow
4:15 AM 30.2 °F 19.3 °F 26.6 °F 86% 30.04 in 8.0 mi NNW 15.0 mph 20.7 mph N/A Snow Light Snow
4:35 AM 28.4 °F 18.0 °F 26.6 °F 93% 30.04 in 4.0 mi NNW 12.7 mph 19.6 mph N/A Snow Light Snow
4:55 AM 28.4 °F 18.0 °F 26.6 °F 93% 30.04 in 2.5 mi NNW 12.7 mph - N/A Snow Light Snow
5:15 AM 28.4 °F 18.5 °F 26.6 °F 93% 30.04 in 1.5 mi NNW 11.5 mph 17.3 mph N/A Snow Light Snow
5:55 AM 28.4 °F 18.5 °F 26.6 °F 93% 30.04 in 1.2 mi NNW 11.5 mph - N/A Snow Light Snow
6:15 AM 28.4 °F 18.5 °F 26.6 °F 93% 30.04 in 1.0 mi NW 11.5 mph 17.3 mph N/A Snow Light Snow
6:35 AM 28.4 °F 18.0 °F 26.6 °F 93% 30.04 in 1.0 mi NW 12.7 mph 19.6 mph N/A   Overcast
6:55 AM 28.4 °F 19.1 °F 26.6 °F 93% 30.04 in 1.5 mi NW 10.4 mph - N/A   Overcast
7:15 AM 28.4 °F 17.5 °F 26.6 °F 93% 30.03 in 2.5 mi NW 13.8 mph - N/A Snow Light Snow
7:35 AM 28.4 °F 17.5 °F 26.6 °F 93% 30.04 in 1.8 mi NW 13.8 mph - N/A   Overcast
7:55 AM 28.4 °F 16.6 °F 26.6 °F 93% 30.04 in 2.0 mi NW 16.1 mph - N/A   Overcast
8:15 AM 28.4 °F 17.0 °F 26.6 °F 93% 30.04 in 1.0 mi NW 15.0 mph - N/A   Mostly Cloudy
8:35 AM 28.4 °F 16.6 °F 26.6 °F 93% 30.05 in 3.0 mi NW 16.1 mph 23.0 mph N/A   Mostly Cloudy
8:55 AM 28.4 °F 18.5 °F 26.6 °F 93% 30.05 in 1.2 mi NW 11.5 mph 19.6 mph N/A   Mostly Cloudy
9:15 AM 28.4 °F 17.5 °F 26.6 °F 93% 30.06 in 2.0 mi NW 13.8 mph 20.7 mph N/A   Scattered Clouds
9:35 AM 30.2 °F 18.5 °F 26.6 °F 86% 30.06 in 4.0 mi NW 17.3 mph 23.0 mph N/A   Mostly Cloudy
9:55 AM 30.2 °F 19.3 °F 26.6 °F 86% 30.06 in 3.0 mi NW 15.0 mph 20.7 mph N/A   Mostly Cloudy
10:15 AM 30.2 °F 18.9 °F 26.6 °F 86% 30.06 in 1.5 mi NW 16.1 mph - N/A   Mostly Cloudy
10:35 AM 30.2 °F 20.2 °F 26.6 °F 86% 30.07 in 2.0 mi NW 12.7 mph 21.9 mph N/A   Scattered Clouds
10:55 AM 30.2 °F 18.9 °F 26.6 °F 86% 30.07 in 1.8 mi NW 16.1 mph 23.0 mph N/A Snow Light Snow
11:15 AM 30.2 °F 18.9 °F 26.6 °F 86% 30.08 in 3.0 mi WNW 16.1 mph - N/A Snow Light Snow
11:35 AM 30.2 °F 18.5 °F 24.8 °F 80% 30.08 in 3.0 mi NW 17.3 mph 24.2 mph N/A Snow Light Snow
11:55 AM 30.2 °F 19.8 °F 24.8 °F 80% 30.08 in 3.0 mi NW 13.8 mph - N/A Snow Light Snow
12:15 PM 32.0 °F 23.0 °F 24.8 °F 75% 30.08 in 5.0 mi NW 11.5 mph 19.6 mph N/A Snow Light Snow
12:55 PM 32.0 °F - 23.0 °F 69% 30.08 in 10.0 mi North - - N/A   Mostly Cloudy
1:15 PM 32.0 °F 20.8 °F 23.0 °F 69% 30.08 in 10.0 mi WNW 17.3 mph 25.3 mph N/A   Overcast
1:35 PM 32.0 °F 19.8 °F 23.0 °F 69% 30.09 in 10.0 mi WNW 20.7 mph - N/A   Overcast
1:55 PM 32.0 °F 20.5 °F 21.2 °F 64% 30.09 in 10.0 mi WNW 18.4 mph 25.3 mph N/A   Overcast
2:15 PM 32.0 °F 22.1 °F 21.2 °F 64% 30.10 in 10.0 mi NW 13.8 mph 28.8 mph N/A   Overcast
2:35 PM 32.0 °F 20.8 °F 21.2 °F 64% 30.10 in 10.0 mi NW 17.3 mph 24.2 mph N/A   Overcast
2:55 PM 32.0 °F 21.6 °F 21.2 °F 64% 30.10 in 10.0 mi WNW 15.0 mph 23.0 mph N/A   Overcast
3:15 PM 32.0 °F 20.5 °F 21.2 °F 64% 30.11 in 10.0 mi WNW 18.4 mph - N/A   Overcast
3:35 PM 32.0 °F 21.2 °F 21.2 °F 64% 30.11 in 10.0 mi NW 16.1 mph 21.9 mph N/A   Overcast
3:55 PM 32.0 °F 21.6 °F 21.2 °F 64% 30.12 in 10.0 mi WNW 15.0 mph - N/A   Mostly Cloudy
4:15 PM 32.0 °F 22.1 °F 21.2 °F 64% 30.12 in 10.0 mi NW 13.8 mph - N/A   Scattered Clouds
4:55 PM 32.0 °F 24.8 °F 21.2 °F 64% 30.13 in 10.0 mi WNW 8.1 mph - N/A   Clear
5:15 PM 32.0 °F 26.4 °F 21.2 °F 64% 30.13 in 10.0 mi WNW 5.8 mph - N/A   Clear
5:35 PM 32.0 °F 27.5 °F 21.2 °F 64% 30.13 in 10.0 mi WNW 4.6 mph - N/A   Clear
5:55 PM 32.0 °F 27.5 °F 21.2 °F 64% 30.14 in 10.0 mi West 4.6 mph - N/A   Clear
6:15 PM 30.2 °F - 23.0 °F 75% 30.15 in 10.0 mi Calm Calm - N/A   Clear
6:35 PM 28.4 °F 24.6 °F 23.0 °F 80% 30.15 in 10.0 mi SSW 3.5 mph - N/A   Clear
6:55 PM 28.4 °F 22.2 °F 23.0 °F 80% 30.15 in 10.0 mi South 5.8 mph - N/A   Clear
7:15 PM 26.6 °F 20.0 °F 23.0 °F 86% 30.16 in 10.0 mi South 5.8 mph - N/A   Clear
7:35 PM 24.8 °F 17.9 °F 23.0 °F 93% 30.17 in 10.0 mi South 5.8 mph - N/A   Clear
8:15 PM 24.8 °F 19.1 °F 23.0 °F 93% 30.17 in 10.0 mi South 4.6 mph - N/A   Clear
8:35 PM 26.6 °F - 23.0 °F 86% 30.17 in 10.0 mi Calm Calm - N/A   Clear
8:55 PM 24.8 °F - 23.0 °F 93% 30.18 in 10.0 mi Calm Calm - N/A   Clear
9:15 PM 24.8 °F 19.1 °F 23.0 °F 93% 30.18 in 10.0 mi SSE 4.6 mph - N/A   Clear
9:35 PM 24.8 °F 20.5 °F 23.0 °F 93% 30.19 in 10.0 mi SSE 3.5 mph - N/A   Clear
9:55 PM 24.8 °F - 23.0 °F 93% 30.19 in 10.0 mi Calm Calm - N/A   Clear
10:15 PM 24.8 °F - 23.0 °F 93% 30.18 in 10.0 mi Calm Calm - N/A   Clear
10:35 PM 24.8 °F - 23.0 °F 93% 30.18 in 10.0 mi Calm Calm - N/A   Clear
10:55 PM 26.6 °F - 23.0 °F 86% 30.18 in 10.0 mi Calm Calm - N/A   Clear
11:15 PM 24.8 °F - 21.2 °F 86% 30.18 in 10.0 mi Calm Calm - N/A   Clear
11:35 PM 26.6 °F 21.2 °F 21.2 °F 80% 30.17 in 10.0 mi SSW 4.6 mph - N/A   Clear
11:55 PM 26.6 °F 20.0 °F 21.2 °F 80% 30.18 in 10.0 mi SW 5.8 mph - N/A   Clear